DLH2UE EDDN-EDDF

Flight info

Callsign DLH2UE
Flight time 0h 23m
Altitude 19000
Route SUKAD1G SUKAD DCT PIWAW T159 SPESA SPESA5B
Aircraft A320/M-SDE3FGHIRWY/LB1

Departure

Time 2026-05-05 17:01
Airport Nuremberg Airport (EDDN)

Arrival

Time 2026-05-05 17:24
Airport Frankfurt Main Airport (EDDF)
Time Latitude Longitude Altitude Speed Heading
2026-05-05 16:39 49.49513 11.07790 1026 ft 0 kts 188°
2026-05-05 16:52 49.49524 11.07793 1026 ft 2 kts 188°
2026-05-05 16:52 49.49539 11.07796 1027 ft 2 kts 188°
2026-05-05 16:52 49.49554 11.07801 1029 ft 2 kts 176°
2026-05-05 16:53 49.49569 11.07797 1029 ft 2 kts 168°
2026-05-05 16:53 49.49583 11.07788 1029 ft 2 kts 111°
2026-05-05 16:53 49.49585 11.07785 1029 ft 0 kts 101°
2026-05-05 16:56 49.49584 11.07789 1029 ft 1 kts 100°
2026-05-05 16:56 49.49580 11.07830 1029 ft 8 kts 98°
2026-05-05 16:56 49.49567 11.07966 1030 ft 18 kts 98°
2026-05-05 16:57 49.49550 11.08141 1028 ft 15 kts 98°
2026-05-05 16:57 49.49537 11.08275 1031 ft 8 kts 98°
2026-05-05 16:57 49.49540 11.08332 1033 ft 3 kts 66°
2026-05-05 16:57 49.49554 11.08348 1032 ft 3 kts 31°
2026-05-05 16:58 49.49596 11.08367 1032 ft 9 kts 23°
2026-05-05 16:58 49.49614 11.08446 1031 ft 8 kts 94°
2026-05-05 16:58 49.49606 11.08540 1033 ft 11 kts 98°
2026-05-05 16:58 49.49591 11.08692 1034 ft 18 kts 98°
2026-05-05 16:59 49.49570 11.08907 1037 ft 23 kts 98°
2026-05-05 16:59 49.49546 11.09154 1038 ft 24 kts 98°
2026-05-05 16:59 49.49535 11.09353 1042 ft 13 kts 76°
2026-05-05 16:59 49.49582 11.09463 1042 ft 14 kts 54°
2026-05-05 17:00 49.49657 11.09566 1045 ft 13 kts
2026-05-05 17:00 49.49712 11.09405 1042 ft 32 kts 278°
2026-05-05 17:00 49.49785 11.08664 1029 ft 105 kts 278°
2026-05-05 17:00 49.49921 11.07264 1116 ft 150 kts 278°
2026-05-05 17:01 49.50104 11.05676 1751 ft 153 kts 279°
2026-05-05 17:01 49.50281 11.04027 2364 ft 163 kts 279°
2026-05-05 17:01 49.50472 11.02200 2691 ft 186 kts 277°
2026-05-05 17:01 49.50664 11.00118 3080 ft 206 kts 277°
2026-05-05 17:02 49.50870 10.97822 3449 ft 229 kts 276°
2026-05-05 17:02 49.51103 10.95260 3888 ft 252 kts 276°
2026-05-05 17:02 49.51359 10.92542 4435 ft 260 kts 276°
2026-05-05 17:02 49.51624 10.89757 4990 ft 264 kts 275°
2026-05-05 17:03 49.51894 10.86954 5574 ft 266 kts 275°
2026-05-05 17:03 49.52168 10.84134 6184 ft 267 kts 274°
2026-05-05 17:03 49.52444 10.81302 6768 ft 269 kts 274°
2026-05-05 17:03 49.52719 10.78482 7415 ft 270 kts 275°
2026-05-05 17:04 49.52999 10.75597 8077 ft 273 kts 275°
2026-05-05 17:04 49.53275 10.72685 8763 ft 277 kts 274°
2026-05-05 17:04 49.53551 10.69735 9446 ft 280 kts 274°
2026-05-05 17:04 49.53830 10.66739 10100 ft 287 kts 274°
2026-05-05 17:05 49.54119 10.63634 10740 ft 299 kts 274°
2026-05-05 17:05 49.54418 10.60408 11392 ft 310 kts 274°
2026-05-05 17:05 49.54736 10.57063 12058 ft 320 kts 277°
2026-05-05 17:05 49.55346 10.53698 12732 ft 333 kts 288°
2026-05-05 17:06 49.56405 10.50460 13427 ft 344 kts 300°
2026-05-05 17:06 49.57764 10.47501 14052 ft 351 kts 303°
2026-05-05 17:06 49.59208 10.44415 14624 ft 359 kts 303°
2026-05-05 17:06 49.60661 10.41287 15159 ft 367 kts 303°
2026-05-05 17:07 49.62161 10.38050 15723 ft 375 kts 303°
2026-05-05 17:07 49.63682 10.34765 16283 ft 378 kts 303°
2026-05-05 17:07 49.65220 10.31440 16853 ft 382 kts 303°
2026-05-05 17:07 49.66770 10.28084 17434 ft 385 kts 303°
2026-05-05 17:08 49.68332 10.24693 18021 ft 389 kts 303°
2026-05-05 17:08 49.69911 10.21268 18540 ft 393 kts 303°
2026-05-05 17:08 49.71503 10.17814 18764 ft 395 kts 303°
2026-05-05 17:08 49.73110 10.14324 18821 ft 403 kts 303°
2026-05-05 17:09 49.74743 10.10763 18827 ft 407 kts 303°
2026-05-05 17:09 49.76378 10.07187 18822 ft 409 kts 303°
2026-05-05 17:09 49.78021 10.03589 18825 ft 410 kts 303°
2026-05-05 17:09 49.79647 10.00027 18825 ft 411 kts 303°
2026-05-05 17:10 49.81271 9.96458 18786 ft 397 kts 303°
2026-05-05 17:10 49.82859 9.92959 18493 ft 388 kts 303°
2026-05-05 17:10 49.84387 9.89594 18066 ft 384 kts 303°
2026-05-05 17:10 49.85917 9.86222 17560 ft 381 kts 303°
2026-05-05 17:11 49.87429 9.82885 16954 ft 376 kts 303°
2026-05-05 17:11 49.88927 9.79577 16262 ft 372 kts 303°
2026-05-05 17:11 49.90406 9.76312 15605 ft 368 kts 303°
2026-05-05 17:11 49.91872 9.73075 14966 ft 364 kts 303°
2026-05-05 17:12 49.93320 9.69879 14329 ft 360 kts 303°
2026-05-05 17:12 49.94755 9.66709 13706 ft 357 kts 303°
2026-05-05 17:12 49.96172 9.63575 13018 ft 353 kts 303°
2026-05-05 17:12 49.97404 9.60842 12419 ft 349 kts 303°
2026-05-05 17:13 49.98794 9.57761 11943 ft 348 kts 303°
2026-05-05 17:13 50.00187 9.54683 11787 ft 348 kts 303°
2026-05-05 17:13 50.01578 9.51609 11828 ft 348 kts 303°
2026-05-05 17:13 50.02956 9.48569 11827 ft 348 kts 303°
2026-05-05 17:14 50.04338 9.45505 11717 ft 341 kts 303°
2026-05-05 17:14 50.05646 9.42578 11562 ft 317 kts 303°
2026-05-05 17:14 50.06879 9.39821 11103 ft 307 kts 303°
2026-05-05 17:14 50.08087 9.37115 10525 ft 302 kts 303°
2026-05-05 17:15 50.09145 9.34345 9926 ft 295 kts 287°
2026-05-05 17:15 50.09671 9.31295 9268 ft 290 kts 280°
2026-05-05 17:15 50.10084 9.28233 8602 ft 286 kts 279°
2026-05-05 17:15 50.10475 9.25204 7963 ft 283 kts 279°
2026-05-05 17:16 50.10858 9.22211 7320 ft 280 kts 279°
2026-05-05 17:16 50.11236 9.19257 6919 ft 277 kts 279°
2026-05-05 17:16 50.11612 9.16303 6812 ft 277 kts 279°
2026-05-05 17:16 50.11991 9.13376 6821 ft 276 kts 279°
2026-05-05 17:17 50.12373 9.10444 6826 ft 276 kts 279°
2026-05-05 17:17 50.12751 9.07526 6649 ft 271 kts 279°
2026-05-05 17:17 50.13124 9.04653 5969 ft 270 kts 279°
2026-05-05 17:17 50.13487 9.01836 5318 ft 270 kts 279°
2026-05-05 17:18 50.13851 8.98979 5043 ft 266 kts 279°
2026-05-05 17:18 50.14183 8.96150 4991 ft 265 kts 274°
2026-05-05 17:18 50.14027 8.93329 4996 ft 262 kts 251°
2026-05-05 17:18 50.13412 8.90657 4998 ft 261 kts 248°
2026-05-05 17:19 50.12787 8.88016 4996 ft 254 kts 249°
2026-05-05 17:19 50.12198 8.85509 4895 ft 241 kts 249°
2026-05-05 17:19 50.11628 8.83085 4612 ft 236 kts 248°
2026-05-05 17:19 50.11065 8.80698 4285 ft 233 kts 249°
2026-05-05 17:20 50.10511 8.78349 3945 ft 226 kts 249°
2026-05-05 17:20 50.09981 8.76106 3630 ft 215 kts 249°
2026-05-05 17:20 50.09646 8.74686 3441 ft 205 kts 249°
2026-05-05 17:20 50.09033 8.72098 3087 ft 180 kts 250°
2026-05-05 17:21 50.08610 8.70310 2863 ft 170 kts 250°
2026-05-05 17:21 50.08346 8.69200 2695 ft 155 kts 250°
2026-05-05 17:21 50.07881 8.67236 2400 ft 141 kts 250°
2026-05-05 17:22 50.07324 8.64892 2064 ft 135 kts 250°
2026-05-05 17:22 50.07004 8.63515 1884 ft 135 kts 251°
2026-05-05 17:22 50.06681 8.62157 1702 ft 136 kts 250°
2026-05-05 17:22 50.06340 8.60786 1488 ft 135 kts 250°
2026-05-05 17:23 50.06025 8.59418 1318 ft 134 kts 251°
2026-05-05 17:23 50.05708 8.58045 1110 ft 135 kts 250°
2026-05-05 17:23 50.05379 8.56684 906 ft 134 kts 250°
2026-05-05 17:23 50.05054 8.55333 697 ft 133 kts 249°
2026-05-05 17:24 50.04729 8.53981 512 ft 134 kts 249°
2026-05-05 17:24 50.04404 8.52630 371 ft 129 kts 250°
2026-05-05 17:24 50.04161 8.51612 360 ft 60 kts 249°
2026-05-05 17:24 50.04059 8.51203 359 ft 32 kts 242°
2026-05-05 17:25 50.03919 8.50940 345 ft 29 kts 221°
2026-05-05 17:25 50.03857 8.50859 348 ft 14 kts 218°
2026-05-05 17:25 50.03785 8.50936 346 ft 11 kts 77°
2026-05-05 17:25 50.03807 8.51031 344 ft 7 kts 69°
2026-05-05 17:26 50.03818 8.51076 352 ft 3 kts 69°
2026-05-05 17:26 50.03838 8.51164 349 ft 17 kts 70°
2026-05-05 17:26 50.03898 8.51417 353 ft 32 kts 70°
2026-05-05 17:26 50.03970 8.51721 355 ft 27 kts 70°
2026-05-05 17:27 50.04034 8.51983 358 ft 26 kts 69°
2026-05-05 17:27 50.04097 8.52242 360 ft 25 kts 69°
2026-05-05 17:27 50.04160 8.52504 357 ft 26 kts 70°
2026-05-05 17:27 50.04218 8.52752 363 ft 24 kts 70°
2026-05-05 17:28 50.04273 8.52976 371 ft 20 kts 69°
2026-05-05 17:28 50.04321 8.53177 372 ft 20 kts 69°
2026-05-05 17:28 50.04370 8.53375 375 ft 19 kts 69°
2026-05-05 17:28 50.04403 8.53596 377 ft 23 kts 83°
2026-05-05 17:29 50.04421 8.53874 378 ft 26 kts 83°
2026-05-05 17:29 50.04438 8.54144 377 ft 23 kts 84°
2026-05-05 17:29 50.04452 8.54436 349 ft 27 kts 93°
2026-05-05 17:29 50.04377 8.54701 356 ft 27 kts 135°
2026-05-05 17:30 50.04219 8.54827 359 ft 26 kts 160°
2026-05-05 17:30 50.04075 8.54909 361 ft 0 kts 159°
2026-05-05 17:32 50.04057 8.54919 361 ft 7 kts 160°
2026-05-05 17:32 50.03969 8.54971 362 ft 17 kts 159°
2026-05-05 17:32 50.03862 8.55051 359 ft 16 kts 129°
2026-05-05 17:32 50.03877 8.55230 360 ft 21 kts 69°
2026-05-05 17:33 50.03933 8.55462 361 ft 24 kts 70°
2026-05-05 17:33 50.03996 8.55727 361 ft 28 kts 69°
2026-05-05 17:33 50.04069 8.56030 355 ft 32 kts 69°
2026-05-05 17:33 50.04101 8.56165 356 ft 1 kts 70°
2026-05-05 17:34 50.04102 8.56169 355 ft 0 kts 70°
2026-05-05 17:34 50.04102 8.56170 354 ft 0 kts 70°
2026-05-05 17:35 50.04108 8.56194 352 ft 8 kts 70°
2026-05-05 17:35 50.04150 8.56281 349 ft 11 kts 15°
2026-05-05 17:35 50.04226 8.56249 355 ft 14 kts 340°
2026-05-05 17:35 50.04291 8.56132 349 ft 15 kts 282°
2026-05-05 17:36 50.04364 8.56044 356 ft 12 kts 342°
2026-05-05 17:36 50.04427 8.56049 356 ft 9 kts 37°
2026-05-05 17:36 50.04469 8.56182 360 ft 14 kts 66°
2026-05-05 17:36 50.04537 8.56223 364 ft 0 kts 34°